Date String (YYYY-MM-DD hh:mm:ss) UTC,Instrument flags,absolute air pressure of the measurement (hPa),sample flow rate (lpm),inlet stack bypass flow (lpm),air temperature of the measurement (°C),ambient temperature measured by the external sensor (°C),aerosol sample conditioner tube jacket temperature (°C),OPC LED temperature (°C),internal box temperature (°C),relative humidity of the measurement (%),span deviation,mass concentration of particles derived from Lorenz-Mie calculation of OPC scattering (μg/m³),mass concentration of particles derived from Lorenz-Mie calculation of OPC scattering (μg/m³),mass concentration of particles derived from Lorenz-Mie calculation of OPC scattering (μg/m³)
DateTimeUTC,F1_M11,P_M11,Q1_M11,Q2_M11,T1_M11,T2_M11,T3_M11,T4_M11,T5_M11,U1_M11,ZSPAN_M11,X0_M11,X2_M11,X1_M11
2023-09-25 04:00:00,SystemResetWarning,0835.3,4.99,000.00,028.3,027.0,000.0,036.6,029.9,12.5,0000.0,0010.88,0004.05,0003.29
2023-09-25 04:01:00,SystemResetWarning,0835.2,5.00,000.00,028.3,027.0,000.0,036.6,030.0,12.5,0000.0,0011.02,0004.07,0003.28
2023-09-25 04:02:00,SystemResetWarning,0835.2,4.99,000.00,028.4,027.1,000.0,036.6,030.0,12.5,0000.0,0011.03,0004.04,0003.28
2023-09-25 04:03:00,SystemResetWarning,0835.2,5.00,000.00,028.4,027.1,000.0,036.6,030.0,12.4,0000.0,0010.72,0004.03,0003.27
2023-09-25 04:04:00,SystemResetWarning,0835.3,5.02,000.00,028.4,027.1,000.0,036.7,030.0,12.4,0000.0,0010.48,0004.02,0003.27
2023-09-25 04:05:00,SystemResetWarning,0835.3,4.99,000.00,028.4,027.2,000.0,036.7,030.1,12.4,0000.0,0010.03,0004.00,0003.27
2023-09-25 04:06:00,SystemResetWarning,0835.3,5.00,000.00,028.4,027.2,000.0,036.7,030.1,12.4,0000.0,0009.68,0003.99,0003.26
2023-09-25 04:07:00,SystemResetWarning,0835.4,5.00,000.00,028.5,027.2,000.0,036.7,030.1,12.4,0000.0,0009.37,0003.98,0003.26
2023-09-25 04:08:00,SystemResetWarning,0835.3,4.99,000.00,028.5,027.2,000.0,036.7,030.1,12.4,0000.0,0009.20,0003.91,0003.25
2023-09-25 04:09:00,SystemResetWarning,0835.3,5.00,000.00,028.5,027.3,000.0,036.7,030.2,12.4,0000.0,0009.20,0003.88,0003.25
2023-09-25 04:10:00,SystemResetWarning,0835.3,5.01,000.00,028.5,027.3,000.0,036.8,030.2,12.4,0000.0,0010.03,0003.89,0003.25
2023-09-25 04:11:00,SystemResetWarning,0835.3,5.00,000.00,028.5,027.3,000.0,036.8,030.2,12.4,0000.0,0009.83,0003.86,0003.26
2023-09-25 04:12:00,SystemResetWarning,0835.3,5.00,000.00,028.6,027.3,000.0,036.8,030.2,12.4,0000.0,0009.70,0003.85,0003.26
2023-09-25 04:13:00,SystemResetWarning,0835.5,4.99,000.00,028.6,027.3,000.0,036.8,030.2,12.4,0000.0,0009.73,0003.87,0003.26
2023-09-25 04:14:00,SystemResetWarning,0835.5,5.00,000.00,028.6,027.3,000.0,036.8,030.2,12.4,0000.0,0009.86,0003.90,0003.26
2023-09-25 04:15:00,SystemResetWarning,0835.4,5.00,000.00,028.6,027.3,000.0,036.8,030.2,12.3,0000.0,0011.95,0003.98,0003.28
2023-09-25 04:16:00,SystemResetWarning,0835.4,5.00,000.00,028.6,027.4,000.0,036.8,030.2,12.3,0000.0,0012.43,0004.01,0003.28
2023-09-25 04:17:00,SystemResetWarning,0835.3,5.01,000.00,028.6,027.4,000.0,036.9,030.3,12.3,0000.0,0013.06,0004.01,0003.28
2023-09-25 04:18:00,SystemResetWarning,0835.4,5.00,000.00,028.6,027.4,000.0,036.9,030.3,12.3,0000.0,0013.48,0004.01,0003.29
2023-09-25 04:19:00,SystemResetWarning,0835.4,5.00,000.00,028.7,027.4,000.0,036.9,030.3,12.3,0000.0,0013.34,0004.06,0003.29
2023-09-25 04:20:00,SystemResetWarning,0835.4,5.00,000.00,028.7,027.4,000.0,036.9,030.3,12.2,0000.0,0013.30,0004.09,0003.30
2023-09-25 04:21:00,SystemResetWarning,0835.5,5.00,000.00,028.7,027.4,000.0,036.9,030.3,12.2,0000.0,0012.45,0004.07,0003.29
2023-09-25 04:22:00,SystemResetWarning,0835.4,5.00,000.00,028.7,027.4,000.0,036.9,030.3,12.2,0000.0,0012.80,0004.07,0003.29
2023-09-25 04:23:00,SystemResetWarning,0835.4,5.00,000.00,028.7,027.4,000.0,037.0,030.3,12.2,0000.0,0012.83,0004.08,0003.29
2023-09-25 04:24:00,SystemResetWarning,0835.3,5.00,000.00,028.7,027.4,000.0,037.0,030.3,12.2,0000.0,0013.17,0004.12,0003.28
2023-09-25 04:25:00,SystemResetWarning,0835.3,5.00,000.00,028.7,027.4,000.0,037.0,030.4,12.2,0000.0,0013.34,0004.13,0003.28
2023-09-25 04:26:00,SystemResetWarning,0835.5,4.99,000.00,028.8,027.5,000.0,037.0,030.4,12.2,0000.0,0011.73,0004.08,0003.27
2023-09-25 04:27:00,SystemResetWarning,0835.4,5.00,000.00,028.8,027.5,000.0,037.0,030.4,12.2,0000.0,0011.47,0004.06,0003.27
2023-09-25 04:28:00,SystemResetWarning,0835.3,5.00,000.00,028.8,027.5,000.0,037.0,030.4,12.2,0000.0,0010.91,0004.07,0003.27
2023-09-25 04:29:00,SystemResetWarning,0835.4,5.00,000.00,028.8,027.5,000.0,037.0,030.4,12.1,0000.0,0010.65,0004.11,0003.27
2023-09-25 04:30:00,SystemResetWarning,0835.4,5.00,000.00,028.8,027.5,000.0,037.1,030.4,12.1,0000.0,0010.60,0004.10,0003.27
2023-09-25 04:31:00,SystemResetWarning,0835.3,5.00,000.00,028.8,027.5,000.0,037.1,030.4,12.1,0000.0,0010.59,0004.12,0003.28
2023-09-25 04:32:00,SystemResetWarning,0835.4,5.00,000.00,028.8,027.5,000.0,037.1,030.4,12.1,0000.0,0010.53,0004.15,0003.29
2023-09-25 04:33:00,SystemResetWarning,0835.3,5.00,000.00,028.8,027.5,000.0,037.1,030.4,12.1,0000.0,0010.08,0004.17,0003.30
2023-09-25 04:34:00,SystemResetWarning,0835.4,5.00,000.00,028.8,027.5,000.0,037.1,030.4,12.1,0000.0,0010.40,0004.16,0003.31
2023-09-25 04:35:00,SystemResetWarning,0835.3,5.00,000.00,028.8,027.5,000.0,037.1,030.4,12.0,0000.0,0010.28,0004.13,0003.30
2023-09-25 04:36:00,SystemResetWarning,0835.3,5.00,000.00,028.9,027.5,000.0,037.1,030.5,12.0,0000.0,0009.71,0004.11,0003.30
2023-09-25 04:37:00,SystemResetWarning,0835.4,5.00,000.00,028.9,027.5,000.0,037.1,030.4,12.0,0000.0,0009.32,0004.10,0003.29
2023-09-25 04:38:00,SystemResetWarning,0835.4,4.99,000.00,028.8,026.4,000.0,037.1,030.1,12.0,0000.0,0009.10,0004.08,0003.28
2023-09-25 04:39:00,SystemResetWarning,0835.3,5.00,000.00,028.7,024.7,000.0,037.0,029.8,12.1,0000.0,0009.23,0004.08,0003.27
2023-09-25 04:40:00,SystemResetWarning,0835.3,5.00,000.00,028.5,024.3,000.0,037.0,029.7,12.2,0000.0,0009.23,0004.08,0003.28
2023-09-25 04:41:00,SystemResetWarning,0835.3,5.01,000.00,028.4,024.5,000.0,036.9,029.5,12.3,0000.0,0009.26,0004.06,0003.28
2023-09-25 04:42:00,SystemResetWarning,0835.3,5.01,000.00,028.3,024.8,000.0,036.9,029.6,12.3,0000.0,0009.17,0004.00,0003.27
2023-09-25 04:43:00,SystemResetWarning,0835.3,4.98,000.00,028.3,025.2,000.0,036.9,029.6,12.3,0000.0,0009.05,0003.96,0003.26
2023-09-25 04:44:00,SystemResetWarning,0835.4,5.00,000.00,028.3,025.5,000.0,036.9,029.6,12.3,0000.0,0008.93,0003.95,0003.25
2023-09-25 04:45:00,SystemResetWarning,0835.5,5.00,000.00,028.3,025.8,000.0,036.8,029.7,12.3,0000.0,0008.58,0003.92,0003.24
2023-09-25 04:46:00,SystemResetWarning,0835.5,5.01,000.00,028.3,026.1,000.0,036.8,029.7,12.3,0000.0,0008.90,0003.90,0003.25
2023-09-25 04:47:00,SystemResetWarning,0835.5,5.00,000.00,028.3,026.3,000.0,036.8,029.7,12.3,0000.0,0009.15,0003.90,0003.25
2023-09-25 04:48:00,SystemResetWarning,0835.5,5.00,000.00,028.3,026.4,000.0,036.8,029.8,12.3,0000.0,0008.97,0003.88,0003.25
2023-09-25 04:49:00,SystemResetWarning,0835.5,5.00,000.00,028.3,026.6,000.0,036.7,029.8,12.2,0000.0,0009.07,0003.87,0003.26
2023-09-25 04:50:00,SystemResetWarning,0835.5,5.01,000.00,028.3,026.7,000.0,036.7,029.8,12.2,0000.0,0009.15,0003.87,0003.27
2023-09-25 04:51:00,SystemResetWarning,0835.5,5.01,000.00,028.3,026.7,000.0,036.7,029.8,12.2,0000.0,0009.18,0003.88,0003.27
2023-09-25 04:52:00,SystemResetWarning,0835.5,5.00,000.00,028.3,026.8,000.0,036.7,029.9,12.1,0000.0,0010.46,0003.91,0003.27
2023-09-25 04:53:00,SystemResetWarning,0835.5,5.00,000.00,028.3,026.9,000.0,036.7,029.9,12.1,0000.0,0010.32,0003.88,0003.26
2023-09-25 04:54:00,SystemResetWarning,0835.5,4.99,000.00,028.4,026.9,000.0,036.7,029.9,12.1,0000.0,0010.28,0003.89,0003.26
2023-09-25 04:55:00,SystemResetWarning,0835.6,5.00,000.00,028.4,027.0,000.0,036.7,029.9,12.0,0000.0,0010.75,0003.88,0003.26
2023-09-25 04:56:00,SystemResetWarning,0835.5,5.00,000.00,028.4,027.0,000.0,036.7,030.0,12.0,0000.0,0011.90,0003.93,0003.27
2023-09-25 04:57:00,SystemResetWarning,0835.5,5.00,000.00,028.4,027.0,000.0,036.7,030.0,12.0,0000.0,0011.88,0003.94,0003.26
2023-09-25 04:58:00,SystemResetWarning,0835.5,5.00,000.00,028.4,027.1,000.0,036.7,030.0,12.0,0000.0,0011.67,0003.93,0003.26
2023-09-25 04:59:00,SystemResetWarning,0835.5,5.00,000.00,028.4,027.1,000.0,036.7,030.0,12.0,0000.0,0012.14,0003.94,0003.27
